Total_Precipitation_Accumulation
0.01 0.05 0.12 0.26 0.65 1.06 1.05 0.63 0.41 0.21 0.24 0.34 0.47 0.56 0.51 0.49 0.62 0.95 0.47 0.16 0.07 0.03 0.06 0.11 0.20 0.14 0.12 0.12 0.15 0.16 0.16 0.15 0.14 0.11 0.09 0.10 0.11 0.12 0.15 0.20 0.23 0.25 0.27 0.28 0.25 0.27 0.29 0.29 0.30
0.03 0.08 0.16 0.42 0.86 0.97 0.81 0.50 0.26 0.20 0.23 0.36 0.43 0.39 0.36 0.31 0.28 0.19 0.22 0.22 0.13 0.06 0.05 0.05 0.13 0.15 0.11 0.11 0.13 0.16 0.15 0.14 0.13 0.12 0.11 0.12 0.15 0.19 0.22 0.26 0.26 0.25 0.26 0.26 0.24 0.27 0.25 0.29 0.33
0.04 0.08 0.20 0.50 0.70 0.59 0.46 0.29 0.23 0.23 0.32 0.42 0.41 0.34 0.34 0.38 0.22 0.13 0.17 0.20 0.14 0.06 0.04 0.06 0.10 0.12 0.11 0.11 0.14 0.15 0.14 0.14 0.13 0.13 0.14 0.16 0.20 0.23 0.23 0.26 0.26 0.26 0.27 0.27 0.28 0.29 0.23 0.25 0.32
0.04 0.10 0.23 0.37 0.36 0.32 0.26 0.23 0.21 0.22 0.37 0.54 0.57 0.40 0.28 0.26 0.20 0.15 0.15 0.13 0.09 0.07 0.05 0.07 0.12 0.12 0.11 0.12 0.15 0.16 0.14 0.15 0.15 0.14 0.16 0.18 0.21 0.25 0.25 0.26 0.25 0.26 0.28 0.26 0.27 0.26 0.25 0.28 0.32
0.04 0.13 0.34 0.32 0.25 0.24 0.23 0.20 0.19 0.22 0.31 0.55 0.64 0.58 0.43 0.33 0.26 0.20 0.21 0.11 0.06 0.07 0.08 0.10 0.14 0.14 0.12 0.13 0.15 0.15 0.15 0.15 0.16 0.15 0.16 0.19 0.23 0.24 0.25 0.25 0.26 0.28 0.30 0.27 0.25 0.24 0.31 0.38 0.44
0.07 0.14 0.22 0.22 0.15 0.13 0.13 0.15 0.21 0.26 0.43 0.54 0.55 0.62 0.59 0.45 0.35 0.22 0.24 0.15 0.09 0.07 0.08 0.12 0.15 0.14 0.13 0.14 0.16 0.16 0.17 0.17 0.17 0.17 0.17 0.20 0.23 0.24 0.25 0.25 0.27 0.29 0.30 0.29 0.27 0.26 0.31 0.35 0.41
0.05 0.11 0.11 0.15 0.12 0.10 0.10 0.13 0.25 0.32 0.60 0.74 0.77 0.71 0.73 0.63 0.39 0.28 0.27 0.22 0.20 0.15 0.10 0.14 0.15 0.15 0.17 0.19 0.19 0.19 0.21 0.20 0.20 0.20 0.20 0.21 0.21 0.24 0.27 0.28 0.29 0.30 0.33 0.33 0.33 0.34 0.34 0.34 0.38
0.02 0.03 0.06 0.09 0.09 0.08 0.09 0.12 0.21 0.30 0.51 0.58 0.71 0.83 0.96 0.75 0.47 0.39 0.40 0.40 0.39 0.37 0.29 0.24 0.23 0.24 0.23 0.23 0.24 0.25 0.25 0.25 0.25 0.23 0.25 0.29 0.30 0.32 0.35 0.34 0.36 0.38 0.39 0.42 0.45 0.46 0.46 0.47 0.48
0.01 0.02 0.05 0.06 0.05 0.05 0.07 0.12 0.18 0.32 0.42 0.45 0.59 0.73 0.87 0.64 0.55 0.59 0.68 0.69 0.68 0.65 0.59 0.45 0.40 0.34 0.35 0.33 0.30 0.36 0.36 0.36 0.37 0.39 0.41 0.54 0.78 0.74 0.75 0.59 0.60 0.61 0.61 0.65 0.68 0.69 0.71 0.67 0.64
0.01 0.02 0.03 0.02 0.02 0.04 0.07 0.12 0.19 0.31 0.66 0.86 1.01 0.92 0.76 0.72 0.73 0.77 0.84 0.83 0.88 0.87 0.69 0.66 0.68 0.50 0.49 0.51 0.56 0.76 0.73 0.73 0.78 0.84 0.82 1.11 1.23 1.16 0.87 0.83 1.01 1.05 1.10 1.09 1.12 1.24 1.20 0.99 0.81
0.00 0.02 0.01 0.01 0.01 0.02 0.05 0.10 0.12 0.26 0.78 1.32 1.46 1.14 0.80 0.89 0.99 1.05 1.09 1.15 1.02 1.02 0.88 0.98 0.94 0.79 0.73 0.89 0.76 0.90 1.13 1.27 1.27 1.23 1.33 1.50 1.30 1.11 0.98 1.10 1.33 1.40 1.45 1.46 1.60 1.81 1.61 1.57 1.53
0.00 0.00 0.00 0.00 0.01 0.02 0.04 0.10 0.14 0.29 0.74 1.16 1.20 0.96 0.78 0.97 1.11 1.33 1.43 1.56 1.59 1.51 1.46 1.44 1.45 1.37 1.26 1.13 1.11 1.06 1.08 1.19 1.35 1.40 1.37 1.57 1.61 1.54 1.45 1.44 1.43 1.49 1.60 1.84 1.88 2.03 2.12 2.16 1.93
0.00 0.00 0.00 0.00 0.01 0.02 0.05 0.10 0.20 0.38 0.51 0.57 0.68 0.72 0.81 1.08 1.37 1.71 1.87 2.01 2.06 2.25 2.33 2.32 2.19 1.92 1.93 1.83 1.61 1.29 1.30 1.27 1.30 1.52 1.56 1.66 1.78 1.87 1.86 1.73 1.67 1.48 1.57 1.86 2.11 2.04 2.22 2.38 2.25
0.00 0.00 0.01 0.01 0.01 0.02 0.04 0.11 0.25 0.44 0.46 0.49 0.59 0.65 0.78 1.19 1.70 2.17 2.23 2.31 2.50 3.05 3.43 3.22 3.01 2.67 2.49 2.35 2.15 1.97 1.73 1.63 1.47 1.55 1.65 1.85 2.03 2.11 2.08 1.90 1.80 1.52 1.50 1.73 2.00 2.04 2.23 2.27 2.29
0.00 0.01 0.03 0.04 0.03 0.07 0.07 0.18 0.39 0.58 0.47 0.48 0.65 0.71 0.80 1.17 1.62 2.35 2.68 2.87 3.08 3.70 4.20 3.93 3.80 3.73 3.44 3.20 2.76 2.29 1.94 1.73 1.82 1.89 2.04 2.15 2.27 2.34 2.29 2.11 1.83 1.68 1.78 1.88 1.89 1.96 2.34 2.20 2.10
0.01 0.01 0.06 0.07 0.05 0.08 0.12 0.43 0.60 0.63 0.55 0.56 0.81 0.80 0.81 1.12 1.61 2.32 2.91 3.34 3.63 3.93 4.28 4.56 4.29 4.59 4.46 4.04 3.47 2.93 2.62 2.45 2.36 2.27 2.36 2.25 2.25 2.28 2.41 2.09 1.75 1.86 2.02 2.00 1.97 2.03 2.26 2.28 2.37
0.01 0.03 0.07 0.11 0.10 0.10 0.15 0.55 0.69 0.50 0.56 0.68 0.82 0.90 0.96 1.20 1.55 2.02 2.65 3.18 3.68 4.20 4.64 5.03 5.24 5.31 4.88 4.42 3.90 3.54 3.25 2.99 2.63 2.18 1.94 1.80 1.70 1.68 1.72 1.46 1.38 1.54 1.64 1.53 1.45 1.75 1.94 2.01 2.13
0.02 0.05 0.11 0.23 0.19 0.12 0.17 0.44 0.59 0.53 0.54 0.73 0.92 0.92 1.01 1.22 1.57 1.96 2.48 2.93 3.51 4.29 5.09 5.48 5.56 5.15 4.67 4.24 3.66 3.35 3.04 2.77 2.45 1.98 1.63 1.40 1.32 1.25 1.30 1.07 1.04 1.28 1.40 1.36 1.46 1.58 1.58 1.50 1.57
0.02 0.05 0.12 0.19 0.13 0.13 0.23 0.43 0.50 0.56 0.63 0.82 0.98 0.98 1.05 1.16 1.51 1.95 2.42 2.93 3.57 4.42 5.31 5.62 5.29 4.70 4.18 3.67 3.08 2.58 2.26 2.05 1.97 1.68 1.36 1.27 1.24 1.22 1.32 1.11 1.19 1.28 1.30 1.30 1.33 1.39 1.31 1.11 1.24
0.05 0.07 0.12 0.16 0.11 0.13 0.20 0.42 0.60 0.71 0.84 0.83 0.88 0.98 0.96 1.17 1.57 2.06 2.62 3.04 3.38 3.90 4.62 4.81 4.37 3.73 3.12 2.71 2.46 2.23 2.08 1.77 1.56 1.47 1.31 1.08 1.08 1.10 1.13 1.12 0.94 0.97 1.06 0.98 1.01 1.22 1.24 1.04 1.12
0.07 0.08 0.12 0.15 0.08 0.13 0.20 0.49 0.78 0.89 0.75 0.62 0.55 0.66 0.71 0.90 1.40 2.11 2.61 2.89 3.17 3.36 3.33 3.37 3.15 2.63 2.29 2.13 2.01 1.92 1.93 1.71 1.44 1.28 1.11 0.93 0.88 0.89 0.92 0.91 0.87 0.94 0.94 0.97 0.97 1.01 1.08 1.01 0.93
0.07 0.05 0.05 0.05 0.06 0.20 0.30 0.76 1.02 0.92 0.76 0.61 0.48 0.48 0.52 0.76 1.23 1.96 2.23 2.30 2.38 2.49 2.29 2.24 2.25 2.07 1.97 1.86 1.74 1.56 1.34 1.23 1.15 1.11 1.03 0.93 0.82 0.78 0.78 0.79 0.75 0.80 0.82 0.97 0.83 0.85 0.93 0.94 0.82
0.05 0.04 0.04 0.07 0.11 0.25 0.43 0.73 1.03 0.88 0.83 0.63 0.45 0.41 0.48 0.62 0.91 1.25 1.29 1.39 1.50 1.60 1.62 1.72 1.95 1.96 1.84 1.78 1.81 1.76 1.41 1.21 1.14 1.12 1.11 0.99 0.88 0.79 0.76 0.77 0.77 0.73 0.69 0.74 0.78 0.88 0.84 0.83 0.79
0.04 0.05 0.11 0.23 0.34 0.66 0.67 0.73 1.06 0.92 0.72 0.49 0.38 0.41 0.37 0.43 0.60 0.80 0.85 0.89 0.96 1.02 1.12 1.29 1.66 1.80 1.72 1.65 1.66 1.60 1.48 1.39 1.25 1.09 0.99 0.92 0.88 0.87 0.86 0.81 0.83 0.77 0.72 0.75 0.75 0.77 0.75 0.81 0.87
0.05 0.09 0.26 0.60 1.00 1.12 0.69 0.71 1.01 0.65 0.43 0.32 0.26 0.28 0.32 0.41 0.50 0.63 0.78 0.80 0.74 0.73 0.80 0.95 1.18 1.31 1.34 1.41 1.49 1.52 1.54 1.48 1.29 1.13 0.97 0.89 0.82 0.80 0.88 0.88 0.87 0.86 0.85 0.81 0.79 0.76 0.74 0.80 0.89
0.07 0.09 0.18 0.36 0.46 0.59 0.59 0.97 1.08 0.55 0.36 0.26 0.19 0.20 0.28 0.33 0.36 0.40 0.50 0.51 0.49 0.55 0.57 0.66 0.80 0.91 1.00 1.10 1.22 1.32 1.32 1.28 1.17 1.17 1.05 0.93 0.82 0.79 0.87 0.91 0.83 0.79 0.80 0.78 0.85 0.74 0.70 0.80 0.88
0.06 0.06 0.07 0.08 0.14 0.36 0.65 0.87 0.76 0.48 0.32 0.22 0.17 0.14 0.17 0.19 0.19 0.21 0.22 0.24 0.28 0.37 0.49 0.58 0.66 0.72 0.80 0.88 1.01 1.12 1.15 1.13 1.13 1.13 1.02 0.94 0.96 0.89 0.91 0.84 0.83 0.81 0.80 0.80 0.85 0.81 0.83 0.87 0.86
0.07 0.06 0.06 0.05 0.15 0.33 0.59 0.88 0.89 0.58 0.39 0.27 0.18 0.15 0.16 0.15 0.14 0.14 0.14 0.14 0.15 0.19 0.34 0.49 0.56 0.67 0.79 0.84 0.84 0.88 1.03 1.03 1.05 1.02 0.95 0.99 1.00 0.95 0.98 0.95 0.88 0.88 0.87 0.91 0.98 0.93 0.92 0.99 1.03
0.06 0.06 0.06 0.06 0.08 0.19 0.44 0.66 0.55 0.39 0.25 0.21 0.17 0.15 0.15 0.16 0.15 0.13 0.12 0.11 0.13 0.14 0.23 0.35 0.44 0.56 0.65 0.69 0.72 0.83 0.93 0.94 0.92 0.93 0.89 0.90 0.89 0.90 0.92 0.92 0.93 0.91 0.96 1.11 1.31 1.26 1.20 1.22 1.27
0.06 0.06 0.07 0.09 0.09 0.13 0.24 0.34 0.26 0.26 0.21 0.19 0.18 0.18 0.22 0.24 0.19 0.17 0.14 0.10 0.11 0.14 0.18 0.27 0.31 0.34 0.39 0.47 0.55 0.67 0.81 0.81 0.80 0.83 0.91 0.92 0.88 0.82 0.74 0.77 0.82 0.80 0.89 1.08 1.37 1.50 1.49 1.46 1.38